{"data":{"norad_id":67261,"epoch":"2026-05-25T03:03:43.350048Z","epoch_age_seconds":70807,"freshness":"FRESH","line1":"1 67261U 25313P   26145.12758507  .00017597  00000+0  69485-3 0  9992","line2":"2 67261  97.3975 220.5288 0015193  85.4185 274.8788 15.25476289 22468","mean_motion":15.25476289,"eccentricity":0.0015193,"inclination_deg":97.3975,"raan_deg":220.5288,"arg_perigee_deg":85.4185,"mean_anomaly_deg":274.8788,"bstar":0.00069485,"rev_number":2246,"period_min":94.396747454132,"perigee_km":478.92182014211,"apogee_km":499.78938316149,"semimajor_km":6867.4926016518,"source":"CELESTRAK","updated_at":"2026-05-25T13:38:06.847418Z"}}